Regional Weather Roundup
Issued by NWS Charleston, SC

Current Version | Previous Version | Text Only | Print | Product List | Glossary Off
Versions: 1 2 3 4 5 6 7 8 9 10 11 12 13 14 15 16 17 18 19 20 21 22 23 24 25 26 27 28 29 30 31 32 33 34 35 36 37 38 39 40 41 42 43 44 45 46 47 48 49 50

069
ASUS42 KCHS 260827
RWRCHS

REGIONAL WEATHER ROUNDUP
NATIONAL WEATHER SERVICE CHARLESTON SC
400 AM EDT TUE SEP 26 2017

NOTE: "FAIR" INDICATES FEW OR NO CLOUDS BELOW 12,000 FEET WITH NO
SIGNIFICANT WEATHER AND/OR OBSTRUCTIONS TO VISIBILITY.

NOT ALL STATIONS ARE QUALITY CONTROLLED. USE DATA WITH CAUTION...
ESPECIALLY DEWPOINT OBSERVATIONS.

SCZ027-030-031-034>040-042>050-260900-
...SOUTHEAST SOUTH CAROLINA...

CITY           SKY/WX    TMP DP  RH WIND       PRES   REMARKS
N CHARLESTON   PTCLDY    70  69  97 NW8       29.85F
WATERFRONT PRK   N/A     76  70  81 N7        29.68F
JOHNS ISLAND   FAIR      72  70  94 NW7       29.85S
PINOPOLIS        N/A     75  70  83 N10       29.79F
MONCKS CORNER  FAIR      73  68  83 N5        29.86S
SUMMERVILLE    FAIR      70  68  94 NW3       29.87S
BEAUFORT MCAS  CLEAR     72  70  93 NW6       29.87F
BEAUFORT ARPT  FAIR      72  70  94 NW5       29.86F
HILTON HEAD IS CLEAR     73  72  94 CALM      29.87F
WALTERBORO     SUNNY     66  66 100 NW3       29.88S
ALLENDALE      NOT AVBL

...SOUTHERN MIDLANDS AND PEE DEE...

CITY           SKY/WX    TMP DP  RH WIND       PRES   REMARKS
GEORGETOWN     FAIR      70  70 100 NW8       29.85S
KINGSTREE      FAIR      68  68 100 NW3       29.86F
ORANGEBURG     CLEAR     70  66  87 NW5       29.89S
BARNWELL       FAIR      70  68  94 NW3       29.90F
AIKEN          CLOUDY    68  64  88 CALM      29.96S
MANNING        FAIR      70  64  83 MISG      29.87S
COLUMBIA       CLEAR     74  66  76 NW6       29.90S
SUMTER         PTCLDY    71  65  81 N7        29.87F
FLORENCE       PTCLDY    70  68  93 NW8       29.87F
MYRTLE BEACH   CLEAR     72  68  87 N12       29.83F
N MYRTLE BEACH CLOUDY    73  69  87 N8        29.81F

$$

GAZ063-065-086>088-099>101-113>116-118-119-134>141-150-260900-
...SOUTHEAST GEORGIA...

CITY           SKY/WX    TMP DP  RH WIND       PRES   REMARKS
SAVANNAH ARPT  PTCLDY    69  67  93 CALM      29.88F
HUNTER AAF     CLEAR     71  68  90 NW5       29.86S
FORT STEWART   PTCLDY    68  65  90 CALM      29.87S
STATESBORO     CLEAR     68  68 100 CALM      29.90F
SYLVANIA       SUNNY     67  67 100 CALM      29.91S
CLAXTON        FAIR      66  66  98 CALM      29.90F

...CSRA...CENTRAL AND FAR SOUTHEAST GEORGIA...

CITY           SKY/WX    TMP DP  RH WIND       PRES   REMARKS
THOMSON        CLEAR     64  62  94 CALM      29.99S
AUGUSTA-BUSH     N/A    N/A N/A N/A MISG        N/A
AUGUSTA-DANIEL MOCLDY    73  66  78 N6        29.93S
SWAINSBORO     PTSUNNY   64  64 100 CALM      29.93S
VIDALIA        CLEAR     68  66  94 CALM      29.92S
EASTMAN        FAIR      65  65 100 CALM      29.94S
HAZLEHURST     FAIR      67  64  90 CALM      29.91R
ALMA           CLEAR     66  64  93 CALM      29.90F
WAYCROSS       CLEAR     67  64  90 CALM      29.90S
JESUP          NOT AVBL
BAXLEY         FAIR      64  64 100 CALM      29.90S
BRUNSWICK      CLEAR     70  66  88 CALM      29.89S FOG
SAINT SIMONS   CLEAR     74  73  97 NW3       29.87S

$$

SCZ027-028-034-036>038-045-046-048>050-GAZ119-141-260900-
...LAKE AND SUPPLEMENTAL COASTAL OBSERVATIONS...

STATION/POSITION TIME  TEMP    WIND        PRES    WAVE   SWELL
                       AIR SEA DIR/SP/G            HT/PER HT/PER/DIR
                 (UTC) (F)     (DEG/KT/KT) (MB)    (FT/S) (FT/S/D)
WINYAH BAY       0730   72     320/  5     1010.0S
LAKE MURRAY      0820   70     330/  2/  5 1012.5R
ACE BASIN NERRS  0745   70        CALM     1011.0S
FORT PULASKI     0800   72 81  330/  6/  7 1011.9
SAPELO ISLAND    0800   74        CALM     1012.0

$$

ANZ835-935-AMZ111-154-330-350-352-354-370-450-454-472-260900-
...C-MAN AND BUOY OBSERVATIONS...

STATION/POSITION TIME  TEMP    WIND        PRES    WAVE   SWELL
                       AIR SEA DIR/SP/G            HT/PER HT/PER/DIR
                 (UTC) (F)     (DEG/KT/KT) (MB)    (FT/S) (FT/S/D)
BUOY 41004       0810   77 81  340/ 14/ 17 1008.9
BUOY 41008       0750   79 80   10/ 10/ 12 1011.0S   4/13   3/ 70/13
FOLLY BEACH CMAN 0800   75     340/  8/  9 1011.0F
CAPERS NEARSHORE 0808   73 80  350/ 14/ 19 1009.7F
FRIPP NEARSHORE  0808   76     320/ 10/ 12 1015.4F


STATION/POSITION TIME  TEMP    WIND        PRES    WAVE   SWELL
                       AIR SEA DIR/SP/G            HT/PER HT/PER/DIR
                 (UTC) (F)     (DEG/KT/KT) (MB)    (FT/S) (FT/S/D)
5E ST. MARYS GA  0800      80                N/A     4/13   2/ 90/13
FRYING PAN BUOY  0810   77 81  360/ 21/ 29 1007.5
BUOY 41025       0750   77 78   20/ 25/ 31 1004.0F  18/14  16/130/14
CAPE LOOKOUT NC  0800   75     360/ 23/ 28 1006.0F
BUOY 41002       0750   79 81  310/ 33/ 43  995.1R  17/10   7/ 60/12
BUOY 41010       0810          330/ 10/ 14 1009.7
ST AUGUSTINE FL  0800   74 81  270/  4/  5 1011.9S


$$




USA.gov is the U.S. government's official web portal to all federal, state and local government web resources and services.